This is the latest recevied weather packets stored in our database for station/object PA3CPS. If no packets are shown the sender has not sent any weather packets the latest 1 day(s).
| Time | Temp. | Humidity | Pressure | Rain* | Wind** | Luminosity | Snow |
|---|---|---|---|---|---|---|---|
| 1777974243 | 10.56° C | 88% | 1011.2 hPa | 0 mm | 2.68 m/s, 29° | 302 W/m² | - |
| 1777973943 | 10.56° C | 89% | 1011.1 hPa | 0 mm | 2.24 m/s, 348° | 329 W/m² | - |
| 1777973643 | 10.56° C | 89% | 1011.1 hPa | 0 mm | 1.79 m/s, 340° | 346 W/m² | - |
| 1777973342 | 10.56° C | 89% | 1011.1 hPa | 0 mm | 2.68 m/s, 351° | 329 W/m² | - |
| 1777973045 | 10° C | 89% | 1011.2 hPa | 0 mm | 3.13 m/s, 331° | 309 W/m² | - |
| 1777972742 | 10° C | 89% | 1011.2 hPa | 0 mm | 2.68 m/s, 337° | 316 W/m² | - |
| 1777972443 | 10° C | 89% | 1011.2 hPa | 0 mm | 2.68 m/s, 7° | 264 W/m² | - |
| 1777972142 | 10° C | 89% | 1011.3 hPa | 0 mm | 3.13 m/s, 16° | 209 W/m² | - |
| 1777971843 | 10° C | 90% | 1011.2 hPa | 0 mm | 2.24 m/s, 340° | 169 W/m² | - |
| 1777971542 | 10° C | 90% | 1011.2 hPa | 0 mm | 2.68 m/s, 331° | 148 W/m² | - |
| 1777971238 | 10° C | 90% | 1011.2 hPa | 0 mm | 3.13 m/s, 10° | 174 W/m² | - |
| 1777970937 | 10° C | 90% | 1011.3 hPa | 0 mm | 3.13 m/s, 4° | 162 W/m² | - |
| 1777970636 | 10° C | 90% | 1011.1 hPa | 0 mm | 2.24 m/s, 351° | 206 W/m² | - |
| 1777970334 | 9.44° C | 90% | 1011.1 hPa | 0 mm | 4.02 m/s, 353° | 192 W/m² | - |
| 1777970033 | 9.44° C | 91% | 1011.2 hPa | 0 mm | 2.68 m/s, 18° | 204 W/m² | - |
| 1777969731 | 9.44° C | 91% | 1011.2 hPa | 0 mm | 2.68 m/s, 345° | 155 W/m² | - |
| 1777969428 | 9.44° C | 91% | 1011.2 hPa | 0 mm | 3.58 m/s, 23° | 178 W/m² | - |
| 1777969125 | 9.44° C | 91% | 1011.2 hPa | 0 mm | 2.68 m/s, 21° | 160 W/m² | - |
| 1777968823 | 9.44° C | 92% | 1011.2 hPa | 0 mm | 2.68 m/s, 6° | 221 W/m² | - |
| 1777968523 | 9.44° C | 92% | 1011.2 hPa | 0 mm | 3.58 m/s, 22° | 158 W/m² | - |
| 1777968217 | 9.44° C | 92% | 1011.2 hPa | 0 mm | 3.58 m/s, 354° | 221 W/m² | - |
| 1777967918 | 9.44° C | 93% | 1011.1 hPa | 0 mm | 2.68 m/s, 342° | 204 W/m² | - |
| 1777967614 | 9.44° C | 93% | 1011.1 hPa | 0 mm | 3.58 m/s, 352° | 287 W/m² | - |
| 1777967312 | 9.44° C | 93% | 1011 hPa | 0 mm | 2.68 m/s, 339° | 325 W/m² | - |
| 1777967013 | 8.89° C | 93% | 1011.2 hPa | 0 mm | 2.68 m/s, 353° | 230 W/m² | - |
* Rain latest hour (hover to see other rain measurements)
** Current wind speed in m/s (hover to see current wind gust speed)